Location: ?????????
(55.6553°N, 38.9075°E)
Time: 07:24:48
(UTC+00:00)

Meteor 1-16 Rocket - Pass Details

Date: 18 October 2019
Orbit: 790 x 908 km, 81.2° (Epoch: 12 November)

Event Time Altitude Azimuth Distance (km) Brightness Sun altitude
Rises 02:32:51 0° 343° (NNW) 3,307 7.1 -13.0°
Reaches altitude 10° 02:35:15 10° 341° (NNW) 2,370 6.4 -12.7°
Maximum altitude 02:40:30 63° 262° (W) 887 4.1 -11.9°
Drops below altitude 10° 02:45:45 10° 182° (S) 2,368 6.5 -11.2°
Sets 02:48:09 0° 179° (S) 3,304 7.3 -10.8°
